Scottsbluff, NE

9:46 PM MDT on May 26, 2018 (GMT -0600)
Heilig

Weather History for KBFF - September, 2012

Change the Weather History Date:

Thursday, September 6, 2012

  Actual Average Record
Temperature  
Mean Temperature 72 °F 66 °F  
Max Temperature 93 °F 82 °F 102 °F (2013)
Min Temperature 50 °F 50 °F 30 °F (1898)
Degree Days  
Heating Degree Days 0 2  
Month to date heating degree days 0 12  
Since 1 July heating degree days 5 32  
Cooling Degree Days 7 3  
Month to date cooling degree days 58 24  
Year to date cooling degree days 1183 689  
Growing Degree Days 22 (Base 50)    
Moisture  
Dew Point 31 °F    
Average Humidity 29    
Maximum Humidity 50    
Minimum Humidity 8    
Precipitation  
Precipitation 0.00 in 0.04 in 1.14 in (1929)
Month to date precipitation T 0.23  
Year to date precipitation 4.85 12.53  
Snow  
Snow 0.00 in 0.00 in - ()
Month to date snowfall 0.0 0.0  
Since 1 July snowfall 0.0 0.0  
Snow Depth 0.00 in    
Sea Level Pressure  
Sea Level Pressure 29.85 in    
Wind  
Wind Speed 10 mph (North)    
Max Wind Speed 28 mph    
Max Gust Speed 37 mph    
Visibility 10 miles    
Events      
T = Trace of Precipitation, MM = Missing Value Source: NWS Daily Summary

Daily Weather History Graph

Daily Weather History Graph

Search for Another Location

Airport or City:

Astronomy

Sep. 06, 2012 Rise Set
Actual Time 6:25 AM MDT 7:18 PM MDT
Civil Twilight 5:57 AM MDT 7:46 PM MDT
Nautical Twilight 5:23 AM MDT 8:20 PM MDT
Astronomical Twilight 4:48 AM MDT 8:55 PM MDT
Moon 10:24 PM MDT (9/6) 12:33 PM MDT (9/6)
Length of Visible Light 13h 49m
Length of Day
12h 52m
Waning Gibbous, 67% of the Moon is Illuminated
Sep 6
Waning Gibbous
Sep 8
Last Quarter
Sep 15
New
Sep 22
First Quarter
Sep 29
Full

Hourly Weather History & Observations

Time (MDT) Temp. Dew Point Humidity Pressure Visibility Wind Dir Wind Speed Gust Speed Precip Events Conditions
12:53 AM 70.0 °F 32.0 °F 25% 29.83 in 10.0 mi SE 5.8 mph - N/A   Clear
1:53 AM 66.9 °F 30.9 °F 26% 29.81 in 10.0 mi South 5.8 mph 16.1 mph N/A   Clear
2:53 AM 62.1 °F 33.1 °F 34% 29.82 in 10.0 mi South 4.6 mph - N/A   Clear
3:53 AM 53.1 °F 36.0 °F 52% 29.82 in 10.0 mi East 5.8 mph - N/A   Clear
4:53 AM 54.0 °F 35.1 °F 49% 29.82 in 10.0 mi East 5.8 mph - N/A   Clear
5:53 AM 55.0 °F 32.0 °F 42% 29.83 in 10.0 mi Variable 5.8 mph - N/A   Clear
6:53 AM 51.1 °F 33.1 °F 50% 29.88 in 10.0 mi NW 4.6 mph - N/A   Clear
7:53 AM 61.0 °F 30.0 °F 31% 29.88 in 10.0 mi WNW 10.4 mph - N/A   Clear
8:53 AM 64.0 °F 35.1 °F 34% 29.89 in 10.0 mi WNW 10.4 mph - N/A   Clear
9:53 AM 73.9 °F 30.0 °F 20% 29.88 in 10.0 mi WNW 13.8 mph - N/A   Clear
10:53 AM 81.0 °F 27.0 °F 14% 29.86 in 10.0 mi West 13.8 mph - N/A   Clear
11:53 AM 84.9 °F 28.0 °F 13% 29.85 in 10.0 mi WNW 9.2 mph - N/A   Clear
12:53 PM 88.0 °F 26.1 °F 11% 29.81 in 10.0 mi NNW 6.9 mph - N/A   Clear
1:53 PM 91.0 °F 21.9 °F 8% 29.79 in 10.0 mi NW 6.9 mph - N/A   Clear
2:53 PM 91.0 °F 21.9 °F 8% 29.77 in 10.0 mi WNW 6.9 mph - N/A   Clear
3:53 PM 91.0 °F 23.0 °F 8% 29.76 in 10.0 mi Variable 4.6 mph - N/A   Clear
4:53 PM 88.0 °F 28.9 °F 12% 29.76 in 10.0 mi SSE 4.6 mph - N/A   Clear
5:53 PM 82.0 °F 28.9 °F 14% 29.78 in 9.0 mi ENE 11.5 mph - N/A   Clear
6:53 PM 80.1 °F 30.9 °F 17% 29.83 in 10.0 mi NE 17.3 mph 34.5 mph N/A   Clear
7:53 PM 75.0 °F 33.1 °F 22% 29.85 in 10.0 mi NNE 17.3 mph 29.9 mph N/A   Clear
8:53 PM 72.0 °F 34.0 °F 25% 29.89 in 10.0 mi NE 20.7 mph 34.5 mph N/A   Clear
9:53 PM 72.0 °F 35.1 °F 26% 29.94 in 10.0 mi NE 19.6 mph 26.5 mph N/A   Clear
10:53 PM 69.1 °F 35.1 °F 29% 29.96 in 10.0 mi NE 15.0 mph 20.7 mph N/A   Clear
11:53 PM 66.9 °F 36.0 °F 32% 30.01 in 10.0 mi NNE 10.4 mph - N/A   Clear